Portada
METAR-TAF:

METAR-TAF

Aeroports :

Port Hope, Michigan, Estats Units d'Amèrica

latitud: 44-01-19N, longitud: 082-47-35W, altitud: 179 m

Observació

L'informe es va fer fa 1 hora i 6 minuts, a les 21:51 UTC
Vent 16 kt del Est
Temperatura 10°C
Humitat 87%
Pressió 1019 hPa

METAR: KP58 222151Z AUTO 10016KT 10/08 A3010 RMK AO1 SLP195 T01000083

Hora: 18:57 (22:57 UTC)


TAF: manca

Observacions i pronòstics meteorològics de més de 4000 aeroports (METAR i TAF).

Les estacions disponibles són els punts grocs i vermells al mapa.

Posi el ratolí al punt desitjat per veure el nom de l'estació.

Feu clic per veure les observacions i els pronòstics meteorològics.

Per canviar el mapa: feu clic els botons verds amb una creu de color negre per apropar; al botó verd amb un guió per allunyar la imatge; o en les fletxes verdes per a mapes adjacents.


METAR-TAF: